Data supplied by UK-AIR on 5/4/2008
All Data GMT hour ending 
Status: R =Ratified P=Provisional,P*=As supplied
,,Manchester South,,,,,,,,,,,,,,,,,,,,,,,
Date,time,"Nitric oxide",status,unit,"Nitrogen dioxide",status,unit,"Nitrogen oxides as nitrogen dioxide",status,unit,"Ozone",status,unit,"Sulphur dioxide",status,unit
 
01-01-2005,01:00,,,,,,,,,,,,,,,
01-01-2005,02:00,,,,,,,,,,42,R,ugm-3,,,
01-01-2005,03:00,,,,,,,,,,42,R,ugm-3,,,
01-01-2005,04:00,,,,,,,,,,44,R,ugm-3,,,
01-01-2005,05:00,,,,,,,,,,44,R,ugm-3,,,
01-01-2005,06:00,,,,,,,,,,48,R,ugm-3,,,
01-01-2005,07:00,,,,,,,,,,42,R,ugm-3,,,
01-01-2005,08:00,,,,,,,,,,40,R,ugm-3,,,
01-01-2005,09:00,,,,,,,,,,38,R,ugm-3,,,
01-01-2005,10:00,,,,,,,,,,38,R,ugm-3,,,
01-01-2005,11:00,,,,,,,,,,32,R,ugm-3,,,
01-01-2005,12:00,,,,,,,,,,32,R,ugm-3,,,
01-01-2005,13:00,,,,,,,,,,32,R,ugm-3,,,
01-01-2005,14:00,,,,,,,,,,34,R,ugm-3,,,
01-01-2005,15:00,,,,,,,,,,34,R,ugm-3,,,
01-01-2005,16:00,,,,,,,,,,36,R,ugm-3,,,
01-01-2005,17:00,,,,,,,,,,38,R,ugm-3,,,
01-01-2005,18:00,,,,,,,,,,34,R,ugm-3,,,
01-01-2005,19:00,,,,,,,,,,36,R,ugm-3,,,
01-01-2005,20:00,,,,,,,,,,34,R,ugm-3,,,
01-01-2005,21:00,,,,,,,,,,40,R,ugm-3,,,
01-01-2005,22:00,,,,,,,,,,38,R,ugm-3,,,
01-01-2005,23:00,,,,,,,,,,42,R,ugm-3,,,
01-01-2005,24:00,,,,,,,,,,48,R,ugm-3,,,
02-01-2005,01:00,,,,,,,,,,34,R,ugm-3,,,
02-01-2005,02:00,,,,,,,,,,36,R,ugm-3,,,
02-01-2005,03:00,,,,,,,,,,38,R,ugm-3,,,
02-01-2005,04:00,,,,,,,,,,42,R,ugm-3,,,
02-01-2005,05:00,,,,,,,,,,54,R,ugm-3,,,
02-01-2005,06:00,,,,,,,,,,54,R,ugm-3,,,
02-01-2005,07:00,,,,,,,,,,42,R,ugm-3,,,
02-01-2005,08:00,,,,,,,,,,46,R,ugm-3,,,
02-01-2005,09:00,,,,,,,,,,32,R,ugm-3,,,
02-01-2005,10:00,,,,,,,,,,28,R,ugm-3,,,
02-01-2005,11:00,,,,,,,,,,26,R,ugm-3,,,
02-01-2005,12:00,,,,,,,,,,38,R,ugm-3,,,
02-01-2005,13:00,,,,,,,,,,40,R,ugm-3,,,
02-01-2005,14:00,,,,,,,,,,40,R,ugm-3,,,
02-01-2005,15:00,,,,,,,,,,40,R,ugm-3,,,
02-01-2005,16:00,,,,,,,,,,38,R,ugm-3,,,
02-01-2005,17:00,,,,,,,,,,38,R,ugm-3,,,
02-01-2005,18:00,,,,,,,,,,32,R,ugm-3,,,
02-01-2005,19:00,,,,,,,,,,38,R,ugm-3,,,
02-01-2005,20:00,,,,,,,,,,38,R,ugm-3,,,
02-01-2005,21:00,,,,,,,,,,34,R,ugm-3,,,
02-01-2005,22:00,,,,,,,,,,30,R,ugm-3,,,
02-01-2005,23:00,,,,,,,,,,38,R,ugm-3,,,
02-01-2005,24:00,,,,,,,,,,40,R,ugm-3,,,
03-01-2005,01:00,,,,,,,,,,36,R,ugm-3,,,
03-01-2005,02:00,,,,,,,,,,48,R,ugm-3,,,
03-01-2005,03:00,,,,,,,,,,48,R,ugm-3,,,
03-01-2005,04:00,,,,,,,,,,42,R,ugm-3,,,
03-01-2005,05:00,,,,,,,,,,46,R,ugm-3,,,
03-01-2005,06:00,,,,,,,,,,44,R,ugm-3,,,
03-01-2005,07:00,,,,,,,,,,38,R,ugm-3,,,
03-01-2005,08:00,,,,,,,,,,36,R,ugm-3,,,
03-01-2005,09:00,,,,,,,,,,42,R,ugm-3,,,
03-01-2005,10:00,,,,,,,,,,40,R,ugm-3,,,
03-01-2005,11:00,,,,,,,,,,30,R,ugm-3,,,
03-01-2005,12:00,,,,,,,,,,30,R,ugm-3,,,
03-01-2005,13:00,,,,,,,,,,26,R,ugm-3,,,
03-01-2005,14:00,,,,,,,,,,40,R,ugm-3,,,
03-01-2005,15:00,,,,,,,,,,46,R,ugm-3,,,
03-01-2005,16:00,,,,,,,,,,36,R,ugm-3,,,
03-01-2005,17:00,,,,,,,,,,36,R,ugm-3,,,
03-01-2005,18:00,,,,,,,,,,48,R,ugm-3,,,
03-01-2005,19:00,,,,,,,,,,48,R,ugm-3,,,
03-01-2005,20:00,,,,,,,,,,46,R,ugm-3,,,
03-01-2005,21:00,,,,,,,,,,46,R,ugm-3,,,
03-01-2005,22:00,,,,,,,,,,40,R,ugm-3,,,
03-01-2005,23:00,,,,,,,,,,44,R,ugm-3,,,
03-01-2005,24:00,,,,,,,,,,52,R,ugm-3,,,
04-01-2005,01:00,,,,,,,,,,50,R,ugm-3,,,
04-01-2005,02:00,,,,,,,,,,40,R,ugm-3,,,
04-01-2005,03:00,,,,,,,,,,40,R,ugm-3,,,
04-01-2005,04:00,,,,,,,,,,34,R,ugm-3,,,
04-01-2005,05:00,,,,,,,,,,32,R,ugm-3,,,
04-01-2005,06:00,,,,,,,,,,40,R,ugm-3,,,
04-01-2005,07:00,,,,,,,,,,34,R,ugm-3,,,
04-01-2005,08:00,,,,,,,,,,30,R,ugm-3,,,
04-01-2005,09:00,,,,,,,,,,28,R,ugm-3,,,
04-01-2005,10:00,,,,,,,,,,28,R,ugm-3,,,
04-01-2005,11:00,,,,,,,,,,34,R,ugm-3,,,
04-01-2005,12:00,,,,,,,,,,34,R,ugm-3,,,
04-01-2005,13:00,,,,,,,,,,38,R,ugm-3,,,
04-01-2005,14:00,,,,,,,,,,36,R,ugm-3,,,
04-01-2005,15:00,,,,,,,,,,26,R,ugm-3,,,
04-01-2005,16:00,,,,,,,,,,36,R,ugm-3,,,
04-01-2005,17:00,,,,,,,,,,20,R,ugm-3,,,
04-01-2005,18:00,,,,,,,,,,16,R,ugm-3,,,
04-01-2005,19:00,,,,,,,,,,22,R,ugm-3,,,
04-01-2005,20:00,,,,,,,,,,26,R,ugm-3,,,
04-01-2005,21:00,,,,,,,,,,26,R,ugm-3,,,
04-01-2005,22:00,,,,,,,,,,34,R,ugm-3,,,
04-01-2005,23:00,,,,,,,,,,40,R,ugm-3,,,
04-01-2005,24:00,,,,,,,,,,42,R,ugm-3,,,
05-01-2005,01:00,,,,,,,,,,8,R,ugm-3,,,
05-01-2005,02:00,,,,,,,,,,14,R,ugm-3,,,
05-01-2005,03:00,,,,,,,,,,26,R,ugm-3,,,
05-01-2005,04:00,,,,,,,,,,4,R,ugm-3,,,
05-01-2005,05:00,,,,,,,,,,2,R,ugm-3,,,
05-01-2005,06:00,,,,,,,,,,6,R,ugm-3,,,
05-01-2005,07:00,,,,,,,,,,38,R,ugm-3,,,
05-01-2005,08:00,,,,,,,,,,32,R,ugm-3,,,
05-01-2005,09:00,,,,,,,,,,26,R,ugm-3,,,
05-01-2005,10:00,,,,,,,,,,26,R,ugm-3,,,
05-01-2005,11:00,,,,,,,,,,24,R,ugm-3,,,
05-01-2005,12:00,,,,,,,,,,26,R,ugm-3,,,
05-01-2005,13:00,,,,,,,,,,26,R,ugm-3,,,
05-01-2005,14:00,,,,,,,,,,24,R,ugm-3,,,
05-01-2005,15:00,,,,,,,,,,26,R,ugm-3,,,
05-01-2005,16:00,,,,,,,,,,28,R,ugm-3,,,
05-01-2005,17:00,,,,,,,,,,32,R,ugm-3,,,
05-01-2005,18:00,,,,,,,,,,34,R,ugm-3,,,
05-01-2005,19:00,,,,,,,,,,38,R,ugm-3,,,
05-01-2005,20:00,,,,,,,,,,18,R,ugm-3,,,
05-01-2005,21:00,,,,,,,,,,24,R,ugm-3,,,
05-01-2005,22:00,,,,,,,,,,30,R,ugm-3,,,
05-01-2005,23:00,,,,,,,,,,32,R,ugm-3,,,
05-01-2005,24:00,,,,,,,,,,26,R,ugm-3,,,
06-01-2005,01:00,,,,,,,,,,34,R,ugm-3,,,
06-01-2005,02:00,,,,,,,,,,12,R,ugm-3,,,
06-01-2005,03:00,,,,,,,,,,28,R,ugm-3,,,
06-01-2005,04:00,,,,,,,,,,42,R,ugm-3,,,
06-01-2005,05:00,,,,,,,,,,32,R,ugm-3,,,
06-01-2005,06:00,,,,,,,,,,12,R,ugm-3,,,
06-01-2005,07:00,,,,,,,,,,24,R,ugm-3,,,
06-01-2005,08:00,,,,,,,,,,28,R,ugm-3,,,
06-01-2005,09:00,,,,,,,,,,24,R,ugm-3,,,
06-01-2005,10:00,,,,,,,,,,22,R,ugm-3,,,
06-01-2005,11:00,,,,,,,,,,22,R,ugm-3,,,
06-01-2005,12:00,,,,,,,,,,22,R,ugm-3,,,
06-01-2005,13:00,,,,,,,,,,26,R,ugm-3,,,
06-01-2005,14:00,,,,,,,,,,30,R,ugm-3,,,
06-01-2005,15:00,,,,,,,,,,28,R,ugm-3,,,
06-01-2005,16:00,,,,,,,,,,30,R,ugm-3,,,
06-01-2005,17:00,,,,,,,,,,36,R,ugm-3,,,
06-01-2005,18:00,,,,,,,,,,34,R,ugm-3,,,
06-01-2005,19:00,,,,,,,,,,2,R,ugm-3,,,
06-01-2005,20:00,,,,,,,,,,2,R,ugm-3,,,
06-01-2005,21:00,,,,,,,,,,2,R,ugm-3,,,
06-01-2005,22:00,,,,,,,,,,4,R,ugm-3,,,
06-01-2005,23:00,,,,,,,,,,2,R,ugm-3,,,
06-01-2005,24:00,,,,,,,,,,4,R,ugm-3,,,
07-01-2005,01:00,,,,,,,,,,26,R,ugm-3,,,
07-01-2005,02:00,,,,,,,,,,32,R,ugm-3,,,
07-01-2005,03:00,,,,,,,,,,28,R,ugm-3,,,
07-01-2005,04:00,,,,,,,,,,28,R,ugm-3,,,
07-01-2005,05:00,,,,,,,,,,26,R,ugm-3,,,
07-01-2005,06:00,,,,,,,,,,26,R,ugm-3,,,
07-01-2005,07:00,,,,,,,,,,24,R,ugm-3,,,
07-01-2005,08:00,,,,,,,,,,26,R,ugm-3,,,
07-01-2005,09:00,,,,,,,,,,6,R,ugm-3,,,
07-01-2005,10:00,,,,,,,,,,2,R,ugm-3,,,
07-01-2005,11:00,,,,,,,,,,8,R,ugm-3,,,
07-01-2005,12:00,,,,,,,,,,18,R,ugm-3,,,
07-01-2005,13:00,3,R,ugm-3,2,R,ugm-3,6,R,ugm-3,20,R,ugm-3,,,
07-01-2005,14:00,0,R,ugm-3,6,R,ugm-3,6,R,ugm-3,14,R,ugm-3,,,
07-01-2005,15:00,0,R,ugm-3,4,R,ugm-3,4,R,ugm-3,22,R,ugm-3,,,
07-01-2005,16:00,0,R,ugm-3,4,R,ugm-3,4,R,ugm-3,22,R,ugm-3,,,
07-01-2005,17:00,0,R,ugm-3,4,R,ugm-3,4,R,ugm-3,22,R,ugm-3,,,
07-01-2005,18:00,0,R,ugm-3,4,R,ugm-3,4,R,ugm-3,22,R,ugm-3,,,
07-01-2005,19:00,0,R,ugm-3,4,R,ugm-3,4,R,ugm-3,22,R,ugm-3,,,
07-01-2005,20:00,0,R,ugm-3,4,R,ugm-3,4,R,ugm-3,28,R,ugm-3,,,
07-01-2005,21:00,0,R,ugm-3,4,R,ugm-3,4,R,ugm-3,28,R,ugm-3,,,
07-01-2005,22:00,0,R,ugm-3,4,R,ugm-3,4,R,ugm-3,30,R,ugm-3,,,
07-01-2005,23:00,0,R,ugm-3,4,R,ugm-3,4,R,ugm-3,42,R,ugm-3,,,
07-01-2005,24:00,0,R,ugm-3,4,R,ugm-3,4,R,ugm-3,46,R,ugm-3,,,
08-01-2005,01:00,0,R,ugm-3,4,R,ugm-3,4,R,ugm-3,38,R,ugm-3,,,
08-01-2005,02:00,0,R,ugm-3,4,R,ugm-3,4,R,ugm-3,30,R,ugm-3,,,
08-01-2005,03:00,0,R,ugm-3,6,R,ugm-3,6,R,ugm-3,14,R,ugm-3,,,
08-01-2005,04:00,0,R,ugm-3,4,R,ugm-3,4,R,ugm-3,42,R,ugm-3,,,
08-01-2005,05:00,1,R,ugm-3,4,R,ugm-3,6,R,ugm-3,28,R,ugm-3,,,
08-01-2005,06:00,1,R,ugm-3,4,R,ugm-3,6,R,ugm-3,16,R,ugm-3,,,
08-01-2005,07:00,1,R,ugm-3,6,R,ugm-3,8,R,ugm-3,14,R,ugm-3,,,
08-01-2005,08:00,0,R,ugm-3,10,R,ugm-3,10,R,ugm-3,4,R,ugm-3,,,
08-01-2005,09:00,3,R,ugm-3,6,R,ugm-3,10,R,ugm-3,4,R,ugm-3,,,
08-01-2005,10:00,3,R,ugm-3,11,R,ugm-3,15,R,ugm-3,14,R,ugm-3,,,
08-01-2005,11:00,3,R,ugm-3,10,R,ugm-3,13,R,ugm-3,34,R,ugm-3,,,
08-01-2005,12:00,1,R,ugm-3,6,R,ugm-3,8,R,ugm-3,34,R,ugm-3,,,
08-01-2005,13:00,3,R,ugm-3,6,R,ugm-3,10,R,ugm-3,34,R,ugm-3,,,
08-01-2005,14:00,3,R,ugm-3,6,R,ugm-3,10,R,ugm-3,34,R,ugm-3,,,
08-01-2005,15:00,3,R,ugm-3,11,R,ugm-3,15,R,ugm-3,34,R,ugm-3,,,
08-01-2005,16:00,3,R,ugm-3,15,R,ugm-3,19,R,ugm-3,32,R,ugm-3,,,
08-01-2005,17:00,4,R,ugm-3,21,R,ugm-3,27,R,ugm-3,34,R,ugm-3,,,
08-01-2005,18:00,5,R,ugm-3,13,R,ugm-3,21,R,ugm-3,32,R,ugm-3,,,
08-01-2005,19:00,6,R,ugm-3,10,R,ugm-3,19,R,ugm-3,32,R,ugm-3,,,
08-01-2005,20:00,3,R,ugm-3,6,R,ugm-3,10,R,ugm-3,34,R,ugm-3,,,
08-01-2005,21:00,3,R,ugm-3,6,R,ugm-3,10,R,ugm-3,38,R,ugm-3,,,
08-01-2005,22:00,1,R,ugm-3,6,R,ugm-3,8,R,ugm-3,36,R,ugm-3,,,
08-01-2005,23:00,3,R,ugm-3,4,R,ugm-3,8,R,ugm-3,38,R,ugm-3,,,
08-01-2005,24:00,3,R,ugm-3,4,R,ugm-3,8,R,ugm-3,28,R,ugm-3,,,
09-01-2005,01:00,1,R,ugm-3,2,R,ugm-3,4,R,ugm-3,26,R,ugm-3,,,
09-01-2005,02:00,1,R,ugm-3,2,R,ugm-3,4,R,ugm-3,24,R,ugm-3,,,
09-01-2005,03:00,0,R,ugm-3,4,R,ugm-3,4,R,ugm-3,28,R,ugm-3,,,
09-01-2005,04:00,1,R,ugm-3,2,R,ugm-3,4,R,ugm-3,32,R,ugm-3,,,
09-01-2005,05:00,3,R,ugm-3,2,R,ugm-3,6,R,ugm-3,40,R,ugm-3,,,
09-01-2005,06:00,1,R,ugm-3,4,R,ugm-3,6,R,ugm-3,46,R,ugm-3,,,
09-01-2005,07:00,1,R,ugm-3,4,R,ugm-3,6,R,ugm-3,42,R,ugm-3,,,
09-01-2005,08:00,1,R,ugm-3,6,R,ugm-3,8,R,ugm-3,34,R,ugm-3,,,
09-01-2005,09:00,1,R,ugm-3,4,R,ugm-3,6,R,ugm-3,32,R,ugm-3,,,
09-01-2005,10:00,0,R,ugm-3,4,R,ugm-3,4,R,ugm-3,34,R,ugm-3,,,
09-01-2005,11:00,1,R,ugm-3,6,R,ugm-3,8,R,ugm-3,30,R,ugm-3,,,
09-01-2005,12:00,1,R,ugm-3,6,R,ugm-3,8,R,ugm-3,30,R,ugm-3,,,
09-01-2005,13:00,3,R,ugm-3,8,R,ugm-3,11,R,ugm-3,24,R,ugm-3,,,
09-01-2005,14:00,1,R,ugm-3,6,R,ugm-3,8,R,ugm-3,24,R,ugm-3,,,
09-01-2005,15:00,1,R,ugm-3,8,R,ugm-3,10,R,ugm-3,22,R,ugm-3,,,
09-01-2005,16:00,0,R,ugm-3,8,R,ugm-3,8,R,ugm-3,22,R,ugm-3,,,
09-01-2005,17:00,1,R,ugm-3,8,R,ugm-3,10,R,ugm-3,22,R,ugm-3,,,
09-01-2005,18:00,0,R,ugm-3,6,R,ugm-3,6,R,ugm-3,26,R,ugm-3,,,
09-01-2005,19:00,0,R,ugm-3,8,R,ugm-3,8,R,ugm-3,20,R,ugm-3,,,
09-01-2005,20:00,0,R,ugm-3,6,R,ugm-3,6,R,ugm-3,22,R,ugm-3,,,
09-01-2005,21:00,0,R,ugm-3,6,R,ugm-3,6,R,ugm-3,24,R,ugm-3,,,
09-01-2005,22:00,0,R,ugm-3,4,R,ugm-3,4,R,ugm-3,32,R,ugm-3,,,
09-01-2005,23:00,0,R,ugm-3,4,R,ugm-3,4,R,ugm-3,12,R,ugm-3,,,
09-01-2005,24:00,0,R,ugm-3,4,R,ugm-3,4,R,ugm-3,6,R,ugm-3,,,
10-01-2005,01:00,3,R,ugm-3,2,R,ugm-3,6,R,ugm-3,22,R,ugm-3,,,
10-01-2005,02:00,3,R,ugm-3,4,R,ugm-3,8,R,ugm-3,34,R,ugm-3,,,
10-01-2005,03:00,1,R,ugm-3,4,R,ugm-3,6,R,ugm-3,34,R,ugm-3,,,
10-01-2005,04:00,3,R,ugm-3,2,R,ugm-3,6,R,ugm-3,30,R,ugm-3,,,
10-01-2005,05:00,1,R,ugm-3,4,R,ugm-3,6,R,ugm-3,30,R,ugm-3,,,
10-01-2005,06:00,3,R,ugm-3,4,R,ugm-3,8,R,ugm-3,32,R,ugm-3,,,
10-01-2005,07:00,3,R,ugm-3,4,R,ugm-3,8,R,ugm-3,32,R,ugm-3,,,
10-01-2005,08:00,1,R,ugm-3,8,R,ugm-3,10,R,ugm-3,34,R,ugm-3,,,
10-01-2005,09:00,3,R,ugm-3,13,R,ugm-3,17,R,ugm-3,32,R,ugm-3,,,
10-01-2005,10:00,3,R,ugm-3,13,R,ugm-3,17,R,ugm-3,34,R,ugm-3,,,
10-01-2005,11:00,3,R,ugm-3,11,R,ugm-3,15,R,ugm-3,34,R,ugm-3,,,
10-01-2005,12:00,4,R,ugm-3,15,R,ugm-3,21,R,ugm-3,34,R,ugm-3,,,
10-01-2005,13:00,6,R,ugm-3,19,R,ugm-3,29,R,ugm-3,14,R,ugm-3,,,
10-01-2005,14:00,5,R,ugm-3,21,R,ugm-3,29,R,ugm-3,12,R,ugm-3,,,
10-01-2005,15:00,3,R,ugm-3,17,R,ugm-3,21,R,ugm-3,32,R,ugm-3,,,
10-01-2005,16:00,3,R,ugm-3,11,R,ugm-3,15,R,ugm-3,26,R,ugm-3,,,
10-01-2005,17:00,1,R,ugm-3,23,R,ugm-3,25,R,ugm-3,8,R,ugm-3,,,
10-01-2005,18:00,1,R,ugm-3,21,R,ugm-3,23,R,ugm-3,10,R,ugm-3,,,
10-01-2005,19:00,3,R,ugm-3,19,R,ugm-3,23,R,ugm-3,38,R,ugm-3,,,
10-01-2005,20:00,3,R,ugm-3,27,R,ugm-3,31,R,ugm-3,24,R,ugm-3,,,
10-01-2005,21:00,1,R,ugm-3,19,R,ugm-3,21,R,ugm-3,30,R,ugm-3,,,
10-01-2005,22:00,1,R,ugm-3,13,R,ugm-3,15,R,ugm-3,30,R,ugm-3,,,
10-01-2005,23:00,1,R,ugm-3,10,R,ugm-3,11,R,ugm-3,30,R,ugm-3,,,
10-01-2005,24:00,1,R,ugm-3,6,R,ugm-3,8,R,ugm-3,34,R,ugm-3,,,
11-01-2005,01:00,3,R,ugm-3,4,R,ugm-3,8,R,ugm-3,32,R,ugm-3,,,
11-01-2005,02:00,1,R,ugm-3,6,R,ugm-3,8,R,ugm-3,34,R,ugm-3,,,
11-01-2005,03:00,3,R,ugm-3,6,R,ugm-3,10,R,ugm-3,34,R,ugm-3,,,
11-01-2005,04:00,1,R,ugm-3,6,R,ugm-3,8,R,ugm-3,34,R,ugm-3,,,
11-01-2005,05:00,1,R,ugm-3,6,R,ugm-3,8,R,ugm-3,28,R,ugm-3,,,
11-01-2005,06:00,3,R,ugm-3,4,R,ugm-3,8,R,ugm-3,30,R,ugm-3,,,
11-01-2005,07:00,1,R,ugm-3,8,R,ugm-3,10,R,ugm-3,28,R,ugm-3,,,
11-01-2005,08:00,3,R,ugm-3,10,R,ugm-3,13,R,ugm-3,26,R,ugm-3,,,
11-01-2005,09:00,4,R,ugm-3,10,R,ugm-3,15,R,ugm-3,22,R,ugm-3,,,
11-01-2005,10:00,3,R,ugm-3,11,R,ugm-3,15,R,ugm-3,24,R,ugm-3,,,
11-01-2005,11:00,,,,,,,,,,,,,,,
11-01-2005,12:00,4,R,ugm-3,10,R,ugm-3,15,R,ugm-3,28,R,ugm-3,,,
11-01-2005,13:00,3,R,ugm-3,8,R,ugm-3,11,R,ugm-3,28,R,ugm-3,,,
11-01-2005,14:00,3,R,ugm-3,8,R,ugm-3,11,R,ugm-3,26,R,ugm-3,,,
11-01-2005,15:00,1,R,ugm-3,10,R,ugm-3,11,R,ugm-3,22,R,ugm-3,,,
11-01-2005,16:00,3,R,ugm-3,8,R,ugm-3,11,R,ugm-3,30,R,ugm-3,,,
11-01-2005,17:00,3,R,ugm-3,8,R,ugm-3,11,R,ugm-3,28,R,ugm-3,,,
11-01-2005,18:00,3,R,ugm-3,8,R,ugm-3,11,R,ugm-3,30,R,ugm-3,,,
11-01-2005,19:00,1,R,ugm-3,8,R,ugm-3,10,R,ugm-3,28,R,ugm-3,,,
11-01-2005,20:00,3,R,ugm-3,6,R,ugm-3,10,R,ugm-3,28,R,ugm-3,,,
11-01-2005,21:00,4,R,ugm-3,11,R,ugm-3,17,R,ugm-3,24,R,ugm-3,,,
11-01-2005,22:00,4,R,ugm-3,8,R,ugm-3,13,R,ugm-3,28,R,ugm-3,,,
11-01-2005,23:00,3,R,ugm-3,6,R,ugm-3,10,R,ugm-3,30,R,ugm-3,,,
11-01-2005,24:00,5,R,ugm-3,8,R,ugm-3,15,R,ugm-3,28,R,ugm-3,,,
12-01-2005,01:00,1,R,ugm-3,0,R,ugm-3,2,R,ugm-3,32,R,ugm-3,,,
12-01-2005,02:00,1,R,ugm-3,2,R,ugm-3,4,R,ugm-3,32,R,ugm-3,,,
12-01-2005,03:00,0,R,ugm-3,4,R,ugm-3,4,R,ugm-3,38,R,ugm-3,,,
12-01-2005,04:00,1,R,ugm-3,2,R,ugm-3,4,R,ugm-3,34,R,ugm-3,,,
12-01-2005,05:00,1,R,ugm-3,2,R,ugm-3,4,R,ugm-3,32,R,ugm-3,,,
12-01-2005,06:00,1,R,ugm-3,2,R,ugm-3,4,R,ugm-3,32,R,ugm-3,,,
12-01-2005,07:00,1,R,ugm-3,2,R,ugm-3,4,R,ugm-3,30,R,ugm-3,,,
12-01-2005,08:00,3,R,ugm-3,4,R,ugm-3,8,R,ugm-3,28,R,ugm-3,,,
12-01-2005,09:00,3,R,ugm-3,8,R,ugm-3,11,R,ugm-3,26,R,ugm-3,,,
12-01-2005,10:00,3,R,ugm-3,13,R,ugm-3,17,R,ugm-3,28,R,ugm-3,,,
12-01-2005,11:00,4,R,ugm-3,15,R,ugm-3,21,R,ugm-3,26,R,ugm-3,,,
12-01-2005,12:00,4,R,ugm-3,11,R,ugm-3,17,R,ugm-3,32,R,ugm-3,,,
12-01-2005,13:00,6,R,ugm-3,21,R,ugm-3,31,R,ugm-3,26,R,ugm-3,,,
12-01-2005,14:00,4,R,ugm-3,17,R,ugm-3,23,R,ugm-3,28,R,ugm-3,,,
12-01-2005,15:00,3,R,ugm-3,10,R,ugm-3,13,R,ugm-3,32,R,ugm-3,,,
12-01-2005,16:00,3,R,ugm-3,11,R,ugm-3,15,R,ugm-3,30,R,ugm-3,,,
12-01-2005,17:00,3,R,ugm-3,13,R,ugm-3,17,R,ugm-3,28,R,ugm-3,,,
12-01-2005,18:00,6,R,ugm-3,29,R,ugm-3,38,R,ugm-3,18,R,ugm-3,,,
12-01-2005,19:00,4,R,ugm-3,27,R,ugm-3,32,R,ugm-3,24,R,ugm-3,,,
12-01-2005,20:00,6,R,ugm-3,31,R,ugm-3,40,R,ugm-3,18,R,ugm-3,,,
12-01-2005,21:00,6,R,ugm-3,31,R,ugm-3,40,R,ugm-3,20,R,ugm-3,,,
12-01-2005,22:00,5,R,ugm-3,31,R,ugm-3,38,R,ugm-3,24,R,ugm-3,,,
12-01-2005,23:00,6,R,ugm-3,29,R,ugm-3,38,R,ugm-3,22,R,ugm-3,,,
12-01-2005,24:00,4,R,ugm-3,21,R,ugm-3,27,R,ugm-3,32,R,ugm-3,,,
13-01-2005,01:00,4,R,ugm-3,11,R,ugm-3,17,R,ugm-3,40,R,ugm-3,,,
13-01-2005,02:00,4,R,ugm-3,2,R,ugm-3,8,R,ugm-3,46,R,ugm-3,,,
13-01-2005,03:00,4,R,ugm-3,4,R,ugm-3,10,R,ugm-3,46,R,ugm-3,,,
13-01-2005,04:00,4,R,ugm-3,10,R,ugm-3,15,R,ugm-3,42,R,ugm-3,,,
13-01-2005,05:00,4,R,ugm-3,11,R,ugm-3,17,R,ugm-3,36,R,ugm-3,,,
13-01-2005,06:00,5,R,ugm-3,13,R,ugm-3,21,R,ugm-3,30,R,ugm-3,,,
13-01-2005,07:00,11,R,ugm-3,34,R,ugm-3,52,R,ugm-3,10,R,ugm-3,,,
13-01-2005,08:00,8,R,ugm-3,42,R,ugm-3,53,R,ugm-3,12,R,ugm-3,,,
13-01-2005,09:00,9,R,ugm-3,36,R,ugm-3,50,R,ugm-3,10,R,ugm-3,,,
13-01-2005,10:00,9,R,ugm-3,29,R,ugm-3,42,R,ugm-3,14,R,ugm-3,,,
13-01-2005,11:00,19,R,ugm-3,29,R,ugm-3,57,R,ugm-3,14,R,ugm-3,,,
13-01-2005,12:00,16,R,ugm-3,31,R,ugm-3,55,R,ugm-3,18,R,ugm-3,,,
13-01-2005,13:00,18,R,ugm-3,36,R,ugm-3,63,R,ugm-3,18,R,ugm-3,,,
13-01-2005,14:00,10,R,ugm-3,27,R,ugm-3,42,R,ugm-3,28,R,ugm-3,,,
13-01-2005,15:00,11,R,ugm-3,34,R,ugm-3,52,R,ugm-3,24,R,ugm-3,,,
13-01-2005,16:00,11,R,ugm-3,42,R,ugm-3,59,R,ugm-3,14,R,ugm-3,,,
13-01-2005,17:00,14,R,ugm-3,46,R,ugm-3,67,R,ugm-3,6,R,ugm-3,,,
13-01-2005,18:00,21,R,ugm-3,48,R,ugm-3,80,R,ugm-3,4,R,ugm-3,,,
13-01-2005,19:00,45,R,ugm-3,55,R,ugm-3,124,R,ugm-3,4,R,ugm-3,,,
13-01-2005,20:00,30,R,ugm-3,46,R,ugm-3,92,R,ugm-3,4,R,ugm-3,,,
13-01-2005,21:00,28,R,ugm-3,46,R,ugm-3,88,R,ugm-3,2,R,ugm-3,,,
13-01-2005,22:00,41,R,ugm-3,44,R,ugm-3,107,R,ugm-3,2,R,ugm-3,,,
13-01-2005,23:00,29,R,ugm-3,46,R,ugm-3,90,R,ugm-3,2,R,ugm-3,,,
13-01-2005,24:00,15,R,ugm-3,38,R,ugm-3,61,R,ugm-3,6,R,ugm-3,,,
14-01-2005,01:00,3,R,ugm-3,23,R,ugm-3,27,R,ugm-3,18,R,ugm-3,,,
14-01-2005,02:00,3,R,ugm-3,21,R,ugm-3,25,R,ugm-3,24,R,ugm-3,,,
14-01-2005,03:00,3,R,ugm-3,21,R,ugm-3,25,R,ugm-3,20,R,ugm-3,,,
14-01-2005,04:00,1,R,ugm-3,23,R,ugm-3,25,R,ugm-3,18,R,ugm-3,,,
14-01-2005,05:00,3,R,ugm-3,27,R,ugm-3,31,R,ugm-3,18,R,ugm-3,,,
14-01-2005,06:00,3,R,ugm-3,17,R,ugm-3,21,R,ugm-3,24,R,ugm-3,,,
14-01-2005,07:00,3,R,ugm-3,25,R,ugm-3,29,R,ugm-3,16,R,ugm-3,,,
14-01-2005,08:00,4,R,ugm-3,29,R,ugm-3,34,R,ugm-3,14,R,ugm-3,,,
14-01-2005,09:00,4,R,ugm-3,21,R,ugm-3,27,R,ugm-3,18,R,ugm-3,,,
14-01-2005,10:00,3,R,ugm-3,17,R,ugm-3,21,R,ugm-3,16,R,ugm-3,,,
14-01-2005,11:00,3,R,ugm-3,17,R,ugm-3,21,R,ugm-3,14,R,ugm-3,,,
14-01-2005,12:00,5,R,ugm-3,21,R,ugm-3,29,R,ugm-3,12,R,ugm-3,,,
14-01-2005,13:00,5,R,ugm-3,21,R,ugm-3,29,R,ugm-3,16,R,ugm-3,,,
14-01-2005,14:00,8,R,ugm-3,19,R,ugm-3,31,R,ugm-3,16,R,ugm-3,,,
14-01-2005,15:00,6,R,ugm-3,21,R,ugm-3,31,R,ugm-3,14,R,ugm-3,,,
14-01-2005,16:00,4,R,ugm-3,23,R,ugm-3,29,R,ugm-3,12,R,ugm-3,,,
14-01-2005,17:00,4,R,ugm-3,25,R,ugm-3,31,R,ugm-3,14,R,ugm-3,,,
14-01-2005,18:00,4,R,ugm-3,31,R,ugm-3,36,R,ugm-3,14,R,ugm-3,,,
14-01-2005,19:00,3,R,ugm-3,21,R,ugm-3,25,R,ugm-3,12,R,ugm-3,,,
14-01-2005,20:00,1,R,ugm-3,17,R,ugm-3,19,R,ugm-3,12,R,ugm-3,,,
14-01-2005,21:00,1,R,ugm-3,17,R,ugm-3,19,R,ugm-3,18,R,ugm-3,,,
14-01-2005,22:00,1,R,ugm-3,17,R,ugm-3,19,R,ugm-3,18,R,ugm-3,,,
14-01-2005,23:00,1,R,ugm-3,17,R,ugm-3,19,R,ugm-3,18,R,ugm-3,,,
14-01-2005,24:00,1,R,ugm-3,15,R,ugm-3,17,R,ugm-3,16,R,ugm-3,,,
15-01-2005,01:00,1,R,ugm-3,17,R,ugm-3,19,R,ugm-3,16,R,ugm-3,,,
15-01-2005,02:00,1,R,ugm-3,13,R,ugm-3,15,R,ugm-3,12,R,ugm-3,,,
15-01-2005,03:00,1,R,ugm-3,10,R,ugm-3,11,R,ugm-3,16,R,ugm-3,,,
15-01-2005,04:00,1,R,ugm-3,10,R,ugm-3,11,R,ugm-3,14,R,ugm-3,,,
15-01-2005,05:00,1,R,ugm-3,10,R,ugm-3,11,R,ugm-3,14,R,ugm-3,,,
15-01-2005,06:00,1,R,ugm-3,10,R,ugm-3,11,R,ugm-3,10,R,ugm-3,,,
15-01-2005,07:00,1,R,ugm-3,10,R,ugm-3,11,R,ugm-3,10,R,ugm-3,,,
15-01-2005,08:00,1,R,ugm-3,10,R,ugm-3,11,R,ugm-3,10,R,ugm-3,,,
15-01-2005,09:00,1,R,ugm-3,10,R,ugm-3,11,R,ugm-3,8,R,ugm-3,,,
15-01-2005,10:00,4,R,ugm-3,15,R,ugm-3,21,R,ugm-3,10,R,ugm-3,,,
15-01-2005,11:00,4,R,ugm-3,15,R,ugm-3,21,R,ugm-3,8,R,ugm-3,,,
15-01-2005,12:00,4,R,ugm-3,13,R,ugm-3,19,R,ugm-3,8,R,ugm-3,,,
15-01-2005,13:00,4,R,ugm-3,13,R,ugm-3,19,R,ugm-3,8,R,ugm-3,,,
15-01-2005,14:00,3,R,ugm-3,13,R,ugm-3,17,R,ugm-3,8,R,ugm-3,,,
15-01-2005,15:00,3,R,ugm-3,11,R,ugm-3,15,R,ugm-3,10,R,ugm-3,,,
15-01-2005,16:00,3,R,ugm-3,13,R,ugm-3,17,R,ugm-3,12,R,ugm-3,,,
15-01-2005,17:00,3,R,ugm-3,11,R,ugm-3,15,R,ugm-3,10,R,ugm-3,,,
15-01-2005,18:00,1,R,ugm-3,10,R,ugm-3,11,R,ugm-3,12,R,ugm-3,,,
15-01-2005,19:00,1,R,ugm-3,11,R,ugm-3,13,R,ugm-3,12,R,ugm-3,,,
15-01-2005,20:00,1,R,ugm-3,11,R,ugm-3,13,R,ugm-3,12,R,ugm-3,,,
15-01-2005,21:00,1,R,ugm-3,11,R,ugm-3,13,R,ugm-3,12,R,ugm-3,,,
15-01-2005,22:00,1,R,ugm-3,15,R,ugm-3,17,R,ugm-3,14,R,ugm-3,,,
15-01-2005,23:00,1,R,ugm-3,13,R,ugm-3,15,R,ugm-3,14,R,ugm-3,,,
15-01-2005,24:00,1,R,ugm-3,11,R,ugm-3,13,R,ugm-3,16,R,ugm-3,,,
16-01-2005,01:00,1,R,ugm-3,10,R,ugm-3,11,R,ugm-3,16,R,ugm-3,,,
16-01-2005,02:00,3,R,ugm-3,8,R,ugm-3,11,R,ugm-3,18,R,ugm-3,,,
16-01-2005,03:00,3,R,ugm-3,8,R,ugm-3,11,R,ugm-3,18,R,ugm-3,,,
16-01-2005,04:00,3,R,ugm-3,6,R,ugm-3,10,R,ugm-3,20,R,ugm-3,,,
16-01-2005,05:00,3,R,ugm-3,6,R,ugm-3,10,R,ugm-3,22,R,ugm-3,,,
16-01-2005,06:00,3,R,ugm-3,6,R,ugm-3,10,R,ugm-3,22,R,ugm-3,,,
16-01-2005,07:00,3,R,ugm-3,10,R,ugm-3,13,R,ugm-3,24,R,ugm-3,,,
16-01-2005,08:00,3,R,ugm-3,15,R,ugm-3,19,R,ugm-3,20,R,ugm-3,,,
16-01-2005,09:00,3,R,ugm-3,10,R,ugm-3,13,R,ugm-3,20,R,ugm-3,,,
16-01-2005,10:00,3,R,ugm-3,8,R,ugm-3,11,R,ugm-3,22,R,ugm-3,,,
16-01-2005,11:00,4,R,ugm-3,8,R,ugm-3,13,R,ugm-3,18,R,ugm-3,,,
16-01-2005,12:00,3,R,ugm-3,6,R,ugm-3,10,R,ugm-3,20,R,ugm-3,,,
16-01-2005,13:00,3,R,ugm-3,6,R,ugm-3,10,R,ugm-3,18,R,ugm-3,,,
16-01-2005,14:00,3,R,ugm-3,4,R,ugm-3,8,R,ugm-3,20,R,ugm-3,,,
16-01-2005,15:00,3,R,ugm-3,4,R,ugm-3,8,R,ugm-3,34,R,ugm-3,,,
16-01-2005,16:00,3,R,ugm-3,4,R,ugm-3,8,R,ugm-3,36,R,ugm-3,,,
16-01-2005,17:00,3,R,ugm-3,21,R,ugm-3,25,R,ugm-3,30,R,ugm-3,,,
16-01-2005,18:00,3,R,ugm-3,11,R,ugm-3,15,R,ugm-3,34,R,ugm-3,,,
16-01-2005,19:00,3,R,ugm-3,8,R,ugm-3,11,R,ugm-3,34,R,ugm-3,,,
16-01-2005,20:00,3,R,ugm-3,4,R,ugm-3,8,R,ugm-3,28,R,ugm-3,,,
16-01-2005,21:00,3,R,ugm-3,4,R,ugm-3,8,R,ugm-3,26,R,ugm-3,,,
16-01-2005,22:00,3,R,ugm-3,2,R,ugm-3,6,R,ugm-3,24,R,ugm-3,,,
16-01-2005,23:00,1,R,ugm-3,2,R,ugm-3,4,R,ugm-3,28,R,ugm-3,,,
16-01-2005,24:00,3,R,ugm-3,0,R,ugm-3,4,R,ugm-3,28,R,ugm-3,,,
17-01-2005,01:00,1,R,ugm-3,2,R,ugm-3,4,R,ugm-3,28,R,ugm-3,,,
17-01-2005,02:00,0,R,ugm-3,4,R,ugm-3,4,R,ugm-3,28,R,ugm-3,,,
17-01-2005,03:00,1,R,ugm-3,2,R,ugm-3,4,R,ugm-3,24,R,ugm-3,,,
17-01-2005,04:00,1,R,ugm-3,4,R,ugm-3,6,R,ugm-3,22,R,ugm-3,,,
17-01-2005,05:00,1,R,ugm-3,2,R,ugm-3,4,R,ugm-3,22,R,ugm-3,,,
17-01-2005,06:00,1,R,ugm-3,2,R,ugm-3,4,R,ugm-3,24,R,ugm-3,,,
17-01-2005,07:00,1,R,ugm-3,4,R,ugm-3,6,R,ugm-3,22,R,ugm-3,,,
17-01-2005,08:00,1,R,ugm-3,4,R,ugm-3,6,R,ugm-3,26,R,ugm-3,,,
17-01-2005,09:00,1,R,ugm-3,6,R,ugm-3,8,R,ugm-3,24,R,ugm-3,,,
17-01-2005,10:00,1,R,ugm-3,8,R,ugm-3,10,R,ugm-3,28,R,ugm-3,,,
17-01-2005,11:00,1,R,ugm-3,17,R,ugm-3,19,R,ugm-3,28,R,ugm-3,,,
17-01-2005,12:00,4,R,ugm-3,21,R,ugm-3,27,R,ugm-3,28,R,ugm-3,,,
17-01-2005,13:00,4,R,ugm-3,17,R,ugm-3,23,R,ugm-3,30,R,ugm-3,,,
17-01-2005,14:00,4,R,ugm-3,13,R,ugm-3,19,R,ugm-3,32,R,ugm-3,,,
17-01-2005,15:00,3,R,ugm-3,17,R,ugm-3,21,R,ugm-3,30,R,ugm-3,,,
17-01-2005,16:00,1,R,ugm-3,13,R,ugm-3,15,R,ugm-3,36,R,ugm-3,,,
17-01-2005,17:00,1,R,ugm-3,13,R,ugm-3,15,R,ugm-3,36,R,ugm-3,,,
17-01-2005,18:00,1,R,ugm-3,8,R,ugm-3,10,R,ugm-3,36,R,ugm-3,,,
17-01-2005,19:00,1,R,ugm-3,8,R,ugm-3,10,R,ugm-3,38,R,ugm-3,,,
17-01-2005,20:00,3,R,ugm-3,19,R,ugm-3,23,R,ugm-3,36,R,ugm-3,,,
17-01-2005,21:00,1,R,ugm-3,15,R,ugm-3,17,R,ugm-3,36,R,ugm-3,,,
17-01-2005,22:00,1,R,ugm-3,10,R,ugm-3,11,R,ugm-3,44,R,ugm-3,,,
17-01-2005,23:00,1,R,ugm-3,4,R,ugm-3,6,R,ugm-3,44,R,ugm-3,,,
17-01-2005,24:00,1,R,ugm-3,8,R,ugm-3,10,R,ugm-3,40,R,ugm-3,,,
18-01-2005,01:00,1,R,ugm-3,4,R,ugm-3,6,R,ugm-3,42,R,ugm-3,,,
18-01-2005,02:00,1,R,ugm-3,4,R,ugm-3,6,R,ugm-3,40,R,ugm-3,,,
18-01-2005,03:00,1,R,ugm-3,2,R,ugm-3,4,R,ugm-3,38,R,ugm-3,,,
18-01-2005,04:00,1,R,ugm-3,4,R,ugm-3,6,R,ugm-3,48,R,ugm-3,,,
18-01-2005,05:00,1,R,ugm-3,4,R,ugm-3,6,R,ugm-3,50,R,ugm-3,,,
18-01-2005,06:00,1,R,ugm-3,4,R,ugm-3,6,R,ugm-3,40,R,ugm-3,,,
18-01-2005,07:00,3,R,ugm-3,15,R,ugm-3,19,R,ugm-3,32,R,ugm-3,,,
18-01-2005,08:00,9,R,ugm-3,29,R,ugm-3,42,R,ugm-3,20,R,ugm-3,,,
18-01-2005,09:00,13,R,ugm-3,40,R,ugm-3,59,R,ugm-3,16,R,ugm-3,,,
18-01-2005,10:00,11,R,ugm-3,32,R,ugm-3,50,R,ugm-3,20,R,ugm-3,,,
18-01-2005,11:00,4,R,ugm-3,19,R,ugm-3,25,R,ugm-3,22,R,ugm-3,,,
18-01-2005,12:00,4,R,ugm-3,13,R,ugm-3,19,R,ugm-3,16,R,ugm-3,,,
18-01-2005,13:00,5,R,ugm-3,15,R,ugm-3,23,R,ugm-3,26,R,ugm-3,,,
18-01-2005,14:00,1,R,ugm-3,8,R,ugm-3,10,R,ugm-3,18,R,ugm-3,,,
18-01-2005,15:00,1,R,ugm-3,8,R,ugm-3,10,R,ugm-3,4,R,ugm-3,,,
18-01-2005,16:00,1,R,ugm-3,6,R,ugm-3,8,R,ugm-3,14,R,ugm-3,,,
18-01-2005,17:00,1,R,ugm-3,8,R,ugm-3,10,R,ugm-3,32,R,ugm-3,,,
18-01-2005,18:00,1,R,ugm-3,6,R,ugm-3,8,R,ugm-3,36,R,ugm-3,,,
18-01-2005,19:00,1,R,ugm-3,4,R,ugm-3,6,R,ugm-3,26,R,ugm-3,,,
18-01-2005,20:00,1,R,ugm-3,4,R,ugm-3,6,R,ugm-3,40,R,ugm-3,,,
18-01-2005,21:00,1,R,ugm-3,4,R,ugm-3,6,R,ugm-3,48,R,ugm-3,,,
18-01-2005,22:00,1,R,ugm-3,4,R,ugm-3,6,R,ugm-3,52,R,ugm-3,,,
18-01-2005,23:00,1,R,ugm-3,4,R,ugm-3,6,R,ugm-3,50,R,ugm-3,,,
18-01-2005,24:00,1,R,ugm-3,6,R,ugm-3,8,R,ugm-3,54,R,ugm-3,,,
19-01-2005,01:00,1,R,ugm-3,10,R,ugm-3,11,R,ugm-3,56,R,ugm-3,,,
19-01-2005,02:00,1,R,ugm-3,6,R,ugm-3,8,R,ugm-3,48,R,ugm-3,,,
19-01-2005,03:00,1,R,ugm-3,2,R,ugm-3,4,R,ugm-3,50,R,ugm-3,,,
19-01-2005,04:00,1,R,ugm-3,8,R,ugm-3,10,R,ugm-3,52,R,ugm-3,,,
19-01-2005,05:00,1,R,ugm-3,11,R,ugm-3,13,R,ugm-3,46,R,ugm-3,,,